EW9660 Weather Reports


time (UTC)temp
F
wind
direction
speed
knots
gust
knots
rain 1hr
in
rain 24hr
in
rain mn
in
humidity
%
barometer
mb
20260508164553 66 36 1.7 5.2 0.00 0.01 0.00 39 1017.4
20260508163022 67 67 2.6 7.8 0.00 0.01 0.00 40 1017.4
20260508161529 67 240 0.0 5.2 0.00 0.01 0.00 48 1017.6
20260508160110 66 14 2.6 4.3 0.00 0.01 0.00 50 1017.9
20260508154536 65 51 1.7 6.1 0.00 0.01 0.00 51 1018.0
20260508153045 65 178 1.7 6.1 0.00 0.01 0.00 49 1018.1
20260508151520 64 152 1.7 3.5 0.00 0.02 0.00 50 1018.0
20260508150109 64 157 0.9 3.5 0.00 0.02 0.00 48 1018.1
20260508144530 63 5 0.0 3.5 0.00 0.02 0.00 50 1018.4
20260508143106 63 9 0.9 4.3 0.00 0.02 0.00 53 1018.4
20260508141559 62 20 0.0 3.5 0.00 0.05 0.00 56 1018.4
20260508140027 61 186 1.7 3.5 0.00 0.05 0.00 56 1018.3
20260508134506 61 144 0.0 3.5 0.00 0.05 0.00 61 1018.2
20260508133041 60 146 0.0 3.5 0.00 0.05 0.00 64 1018.2
20260508131519 58 44 0.0 2.6 0.00 0.06 0.00 71 1018.1
20260508130053 56 35 0.9 3.5 0.00 0.06 0.00 77 1018.0
20260508124527 54 355 0.0 1.7 0.00 0.06 0.00 85 1017.9
20260508123016 52 39 0.0 1.7 0.00 0.06 0.00 91 1017.8
20260508121533 50 37 0.9 2.6 0.00 0.12 0.00 91 1017.6
20260508120017 48 5 0.0 0.9 0.00 0.12 0.00 91 1017.5
20260508114608 47 188 0.0 0.0 0.00 0.12 0.00 91 1017.2
20260508113038 46 237 0.0 0.0 0.00 0.12 0.00 91 1016.9
20260508111513 44 71 0.0 0.0 0.00 0.15 0.00 90 1016.7
20260508110109 44 71 0.0 0.0 0.00 0.15 0.00 89 1016.4
20260508104539 45 71 0.0 0.0 0.00 0.15 0.00 89 1016.3
20260508103016 45 71 0.0 0.0 0.00 0.15 0.00 89 1015.9
20260508101553 45 71 0.0 0.0 0.00 0.15 0.00 89 1015.7
20260508100017 45 71 0.0 0.0 0.00 0.15 0.00 89 1015.6
20260508094515 46 71 0.0 0.0 0.00 0.15 0.00 89 1015.5
20260508093012 46 71 0.0 0.0 0.00 0.15 0.00 89 1015.5
20260508091543 46 71 0.0 0.0 0.00 0.15 0.00 89 1015.4
20260508090025 46 71 0.0 0.0 0.00 0.15 0.00 89 1015.3
20260508084557 46 71 0.0 0.0 0.00 0.15 0.00 89 1015.3
20260508083027 47 71 0.0 0.0 0.00 0.15 0.00 88 1015.1
20260508081509 47 71 0.0 0.0 0.00 0.15 0.00 89 1014.9
20260508080110 47 71 0.0 0.0 0.00 0.15 0.00 89 1014.8
20260508074529 48 71 0.0 0.0 0.00 0.15 0.00 89 1014.8
20260508073016 48 71 0.0 0.0 0.00 0.15 0.00 88 1014.8
20260508071543 48 71 0.0 0.0 0.00 0.22 0.00 88 1014.7
20260508070024 48 71 0.0 0.0 0.00 0.22 0.00 88 1014.5
20260508064505 49 71 0.0 0.0 0.00 0.22 0.00 87 1014.4
20260508063107 49 71 0.0 0.0 0.00 0.22 0.00 88 1014.3
20260508061504 49 71 0.0 0.0 0.00 0.32 0.00 87 1014.5
20260508060107 50 71 0.0 0.0 0.00 0.32 0.00 87 1014.6
20260508054530 50 71 0.0 0.0 0.00 0.32 0.00 86 1014.5
20260508053038 50 71 0.0 0.0 0.00 0.32 0.00 86 1014.4
20260508051518 51 71 0.0 0.0 0.00 0.40 0.00 85 1014.4
20260508050036 51 71 0.0 0.0 0.00 0.40 0.00 83 1014.3
20260508044553 52 71 0.0 0.0 0.00 0.40 0.00 82 1014.2
20260508043038 53 71 0.0 0.0 0.00 0.40 0.00 81 1013.9
20260508041511 54 71 0.0 0.0 0.00 0.40 0.40 80 1014.0
20260508040042 54 71 0.0 0.0 0.00 0.40 0.40 81 1014.1
20260508034534 55 71 0.0 0.9 0.00 0.40 0.40 80 1014.0
20260508033013 55 71 0.0 0.0 0.00 0.40 0.40 78 1013.9
20260508031603 56 71 0.0 0.9 0.00 0.47 0.40 77 1013.9
20260508030038 57 71 0.0 0.0 0.00 0.47 0.40 76 1013.8
20260508024514 57 71 0.0 0.0 0.00 0.47 0.40 75 1013.7
20260508023038 57 71 0.0 0.9 0.00 0.47 0.40 74 1013.5
20260508021521 57 30 0.0 2.6 0.00 0.57 0.40 78 1013.3
20260508020022 57 313 0.0 1.7 0.00 0.57 0.40 83 1013.0
20260508014542 58 342 0.0 0.9 0.00 0.57 0.40 87 1012.8
20260508013017 59 342 0.0 0.9 0.00 0.57 0.40 86 1012.5
20260508011510 59 342 0.0 1.7 0.00 0.74 0.40 86 1012.4
20260508010010 59 240 0.0 0.9 0.00 0.74 0.40 86 1012.1
20260508004535 60 273 0.0 0.0 0.00 0.74 0.40 84 1011.8
20260508003102 60 205 0.0 0.9 0.00 0.74 0.40 84 1011.2
20260508001629 61 205 0.0 1.7 0.00 0.88 0.40 83 1010.8
20260508000029 62 37 0.0 2.6 0.00 0.88 0.40 82 1010.8
20260507234515 62 342 0.0 3.5 0.00 0.88 0.40 81 1010.6
20260507233057 63 67 0.9 6.1 0.00 0.88 0.40 80 1010.5
20260507231548 64 59 0.9 4.3 0.00 0.89 0.40 80 1010.1
20260507230027 65 81 0.9 4.3 0.00 0.89 0.40 78 1009.8
20260507224614 66 80 1.7 8.7 0.00 0.89 0.40 78 1009.6
20260507223026 64 65 0.9 7.8 0.00 0.89 0.40 82 1009.2
20260507221511 64 30 1.7 7.0 0.00 0.89 0.40 82 1009.1
20260507220044 66 74 0.9 5.2 0.00 0.89 0.40 80 1008.6
20260507214516 69 72 0.9 6.1 0.00 0.89 0.40 75 1008.2
20260507213018 73 14 0.0 5.2 0.00 0.89 0.40 66 1007.3
20260507211514 75 41 1.7 7.8 0.00 0.89 0.40 65 1007.1
20260507210016 76 355 0.0 6.1 0.00 0.89 0.40 63 1006.7
20260507204600 77 231 0.9 7.0 0.00 0.89 0.40 64 1007.0
20260507203029 77 239 0.9 2.6 0.00 0.89 0.40 63 1007.1
20260507201533 77 275 2.6 7.0 0.00 0.89 0.40 62 1007.2
20260507200019 78 10 2.6 7.0 0.00 0.89 0.40 59 1007.3
20260507194547 78 65 0.9 7.0 0.00 0.89 0.40 65 1007.7
20260507193031 77 53 0.9 6.1 0.00 0.89 0.40 64 1007.7
20260507191609 76 48 2.6 7.8 0.00 0.89 0.40 66 1008.1
20260507184526 75 80 0.9 7.0 0.01 0.89 0.40 67 1008.4
20260507183004 74 317 1.7 6.1 0.01 0.89 0.40 71 1008.5
20260507181533 74 329 2.6 6.1 0.01 0.91 0.40 70 1008.4
20260507180037 72 196 2.6 4.3 0.01 0.91 0.40 76 1008.4
20260507174610 72 149 0.0 5.2 0.00 0.90 0.39 78 1008.7
20260507173048 71 338 1.7 7.0 0.00 0.90 0.39 80 1009.1
20260507171523 70 118 1.7 7.8 0.00 1.14 0.39 83 1009.1
20260507170038 69 311 0.9 3.5 0.00 1.14 0.39 88 1009.1